EZY14QP EGPH-BIKF

Flight info

Callsign EZY14QP
Flight time N/A
Altitude 36000
Route GRICE DCT FOYLE N560 ERSON ATSIX/M077F380 DCT 6100N01234W DCT ALDAN DCT ASRUN ASRUN4N
Aircraft A320/M-SDE3FGHIRWY/LB1

Departure

Time N/A
Airport Edinburgh Airport (EGPH)

Arrival

Time 2026-05-06 18:43
Airport Keflavik International Airport (BIKF)
Time Latitude Longitude Altitude Speed Heading
2026-05-06 18:24 63.23667 -19.55334 32603 ft 436 kts 307°
2026-05-06 18:24 63.30500 -19.76836 30507 ft 417 kts 307°
2026-05-06 18:24 63.37038 -19.97615 28151 ft 402 kts 308°
2026-05-06 18:25 63.43337 -20.17817 25832 ft 390 kts 308°
2026-05-06 18:25 63.47128 -20.30063 24512 ft 383 kts 308°
2026-05-06 18:25 63.48618 -20.34893 23993 ft 381 kts 308°
2026-05-06 18:25 63.50117 -20.39758 23443 ft 378 kts 308°
2026-05-06 18:26 63.51601 -20.44590 22867 ft 375 kts 308°
2026-05-06 18:26 63.53070 -20.49401 22347 ft 372 kts 308°
2026-05-06 18:26 63.54522 -20.54156 21853 ft 368 kts 308°
2026-05-06 18:26 63.55781 -20.59165 21356 ft 370 kts 296°
2026-05-06 18:27 63.56558 -20.64661 20827 ft 368 kts 289°
2026-05-06 18:27 63.57233 -20.70169 19960 ft 364 kts 289°
2026-05-06 18:27 63.57907 -20.75661 18737 ft 370 kts 289°
2026-05-06 18:27 63.58596 -20.81225 17168 ft 380 kts 288°
2026-05-06 18:28 63.59321 -20.87098 15806 ft 398 kts 288°
2026-05-06 18:28 63.60068 -20.93185 14626 ft 409 kts 288°
2026-05-06 18:28 63.60819 -20.99365 13796 ft 410 kts 287°
2026-05-06 18:28 63.61547 -21.05422 13547 ft 389 kts 287°
2026-05-06 18:29 63.62216 -21.11063 13332 ft 358 kts 287°
2026-05-06 18:29 63.62831 -21.16267 13072 ft 333 kts 286°
2026-05-06 18:29 63.63434 -21.21359 11664 ft 342 kts 288°
2026-05-06 18:29 63.64041 -21.26460 10770 ft 338 kts 287°
2026-05-06 18:30 63.64626 -21.31438 10027 ft 325 kts 287°
2026-05-06 18:30 63.65200 -21.36318 9473 ft 311 kts 289°
2026-05-06 18:30 63.65725 -21.40853 9249 ft 289 kts 289°
2026-05-06 18:30 63.66221 -21.45155 8708 ft 280 kts 290°
2026-05-06 18:31 63.66713 -21.49358 8267 ft 274 kts 289°
2026-05-06 18:31 63.67205 -21.53533 8186 ft 276 kts 290°
2026-05-06 18:31 63.67697 -21.57716 8193 ft 276 kts 290°
2026-05-06 18:31 63.68185 -21.61903 8196 ft 276 kts 288°
2026-05-06 18:32 63.68667 -21.66060 7868 ft 273 kts 288°
2026-05-06 18:32 63.69139 -21.70145 7449 ft 272 kts 288°
2026-05-06 18:32 63.69612 -21.74261 7064 ft 270 kts 288°
2026-05-06 18:32 63.70080 -21.78346 6682 ft 268 kts 288°
2026-05-06 18:33 63.70544 -21.82401 6274 ft 267 kts 288°
2026-05-06 18:33 63.71006 -21.86444 5828 ft 266 kts 288°
2026-05-06 18:33 63.71463 -21.90479 5389 ft 265 kts 288°
2026-05-06 18:33 63.71918 -21.94506 4943 ft 265 kts 288°
2026-05-06 18:34 63.72371 -21.98531 4508 ft 265 kts 288°
2026-05-06 18:34 63.72823 -22.02544 4077 ft 263 kts 288°
2026-05-06 18:34 63.73265 -22.06470 3666 ft 261 kts 288°
2026-05-06 18:34 63.73709 -22.10433 3470 ft 260 kts 288°
2026-05-06 18:35 63.74154 -22.14404 3477 ft 262 kts 288°
2026-05-06 18:35 63.74600 -22.18400 3478 ft 262 kts 288°
2026-05-06 18:35 63.75041 -22.22399 3478 ft 262 kts 287°
2026-05-06 18:35 63.75475 -22.26383 3411 ft 257 kts 289°
2026-05-06 18:36 63.75887 -22.30202 3286 ft 244 kts 288°
2026-05-06 18:36 63.76295 -22.33932 2720 ft 250 kts 289°
2026-05-06 18:36 63.76707 -22.37633 2492 ft 240 kts 290°
2026-05-06 18:36 63.77258 -22.41109 2470 ft 231 kts 295°
2026-05-06 18:37 63.77811 -22.44480 1987 ft 228 kts 295°
2026-05-06 18:37 63.78178 -22.46749 1802 ft 226 kts 295°
2026-05-06 18:37 63.78844 -22.50914 1816 ft 205 kts 296°
2026-05-06 18:37 63.79314 -22.53866 1804 ft 191 kts 296°
2026-05-06 18:38 63.79737 -22.56530 1806 ft 169 kts 298°
2026-05-06 18:38 63.80299 -22.58602 1797 ft 140 kts 321°
2026-05-06 18:38 63.81025 -22.59861 1798 ft 127 kts 339°
2026-05-06 18:38 63.81837 -22.60292 1801 ft 118 kts
2026-05-06 18:39 63.82655 -22.60370 1810 ft 120 kts
2026-05-06 18:39 63.83489 -22.60452 1810 ft 119 kts
2026-05-06 18:39 63.84319 -22.60497 1808 ft 120 kts
2026-05-06 18:40 63.85983 -22.60536 1799 ft 118 kts
2026-05-06 18:40 63.86809 -22.60543 1805 ft 120 kts
2026-05-06 18:40 63.87640 -22.60546 1808 ft 120 kts
2026-05-06 18:40 63.88469 -22.60548 1737 ft 120 kts
2026-05-06 18:41 63.89303 -22.60549 1615 ft 120 kts
2026-05-06 18:41 63.90126 -22.60549 1469 ft 119 kts
2026-05-06 18:41 63.90948 -22.60549 1327 ft 119 kts
2026-05-06 18:41 63.91773 -22.60549 1152 ft 117 kts
2026-05-06 18:42 63.92588 -22.60549 980 ft 118 kts
2026-05-06 18:42 63.93414 -22.60549 798 ft 118 kts
2026-05-06 18:42 63.94244 -22.60549 633 ft 117 kts
2026-05-06 18:42 63.95060 -22.60548 473 ft 117 kts
2026-05-06 18:43 63.95885 -22.60553 300 ft 118 kts
2026-05-06 18:43 63.96689 -22.60557 167 ft 111 kts
2026-05-06 18:43 63.97268 -22.60543 167 ft 46 kts 359°
2026-05-06 18:43 63.97410 -22.60541 172 ft 23 kts
2026-05-06 18:44 63.97447 -22.60750 169 ft 16 kts 250°
2026-05-06 18:44 63.97450 -22.60846 167 ft 0 kts 282°
2026-05-06 18:45 63.97453 -22.60868 167 ft 5 kts 282°
2026-05-06 18:45 63.97580 -22.60941 167 ft 15 kts
2026-05-06 18:45 63.97648 -22.60939 168 ft 15 kts
2026-05-06 18:45 63.97751 -22.60940 169 ft 15 kts 359°
2026-05-06 18:46 63.97892 -22.60941 170 ft 16 kts
2026-05-06 18:46 63.98008 -22.60939 169 ft 17 kts
2026-05-06 18:46 63.98133 -22.60938 167 ft 19 kts
2026-05-06 18:46 63.98270 -22.60940 165 ft 20 kts
2026-05-06 18:47 63.98405 -22.60941 166 ft 19 kts 359°
2026-05-06 18:47 63.98536 -22.60937 169 ft 19 kts 359°
2026-05-06 18:47 63.98667 -22.60934 167 ft 19 kts
2026-05-06 18:47 63.98801 -22.60937 166 ft 19 kts 358°
2026-05-06 18:48 63.98918 -22.60942 170 ft 15 kts
2026-05-06 18:48 63.99018 -22.60939 170 ft 15 kts
2026-05-06 18:48 63.99120 -22.60934 166 ft 15 kts
2026-05-06 18:48 63.99173 -22.61092 161 ft 16 kts 271°
2026-05-06 18:49 63.99174 -22.61367 155 ft 19 kts 271°
2026-05-06 18:49 63.99174 -22.61687 151 ft 22 kts 269°
2026-05-06 18:49 63.99168 -22.61994 143 ft 18 kts 267°
2026-05-06 18:49 63.99169 -22.62174 143 ft 7 kts 271°
2026-05-06 18:50 63.99170 -22.62277 141 ft 6 kts 271°